sat.trackr.live / text

‹ back to catalog

HEAD-3E

NORAD 57630 · 2023-121E

PAYLOAD ACTIVE UNKNOWN

§ Identity

Operator
Country
PRC
Launch date
2023-08-14
Launch site
XICLF
Launch vehicle
Mass (kg)
RCS (m²)

External: N2YO · Heavens-Above · Gunter

§ Orbital elements

Epoch: 2026-05-25T03:59:28.726944Z

Period
98.37 min
Inclination
45.0028°
Eccentricity
0.0006909
Mean motion
14.63808457 rev/d
Perigee alt
676.0 km
Apogee alt
685.8 km
Semi-major
7,059.0 km
B*
1.8859e-4
RAAN
41.4453°
Arg perigee
140.1910°
Mean anomaly
219.9456°
Rev number
14,851

§ Raw data

HEAD-3E1 57630U 23121E   26145.16630471  .00000831  00000+0  18859-3 0  99912 57630  45.0028  41.4453 0006909 140.1910 219.9456 14.63808457148514

JSON: /api/v1/satellites/57630 · /tle

For live sub-satellite position, see the globe view (requires WebGL).

§ Visibility from observer

Set your observer location to see the next 7 days of passes ≥ 10°. The values pass through the URL so the page stays shareable.

No JS? Fill the form by hand. The geolocation button needs JavaScript.